カタログに戻る

COSMOS 1491

GLONASS

運用中ナビゲーションMEO
NORAD 14259·PAYLOAD·🇷🇺 Russia

打ち上げ Aug 10, 1983 から Baikonur Cosmodrome

Loading…

次のパス (今後24時間)

TLE

最新Source: Space-Track

元期: Sep 14, 2026, 11:58 UTC

1 14259U 83084B   26257.49873390 -.00000030  00000-0  00000-0 0  9993
2 14259  65.0865  54.9390 0019148 302.3013  63.5308  2.15434789338066

AllMySatでCOSMOS 1491をリアルタイム追跡

Download on the App Store